Pecos, TX

6:45 PM CDT on March 26, 2017 (GMT -0500)
Pecos Municipal

Weather History for KPEQ - July, 2012

Change the Weather History Date:

Tuesday, July 31, 2012

  Actual Average Record
Temperature  
Mean Temperature 84 °F -  
Max Temperature 101 °F 98 °F 111 °F (1944)
Min Temperature 68 °F 68 °F 62 °F (1914)
Cooling Degree Days 20    
Growing Degree Days 34 (Base 50)    
Moisture  
Dew Point 52 °F    
Average Humidity 35    
Maximum Humidity 64    
Minimum Humidity 15    
Precipitation  
Precipitation 0.00 in - - ()
Sea Level Pressure  
Sea Level Pressure 30.01 in    
Wind  
Wind Speed 4 mph (East)    
Max Wind Speed 13 mph    
Max Gust Speed -    
Visibility 10 miles    
Events      
Averages and records for this station are not official NWS values.
T = Trace of Precipitation, MM = Missing Value Source: NWS Daily Summary

Daily Weather History Graph

Daily Weather History Graph

Search for Another Location

Airport or City:

Trip Planner

Search our weather history database for the weather conditions in past years. The results will help you decide how hot, cold, wet, or windy it might be!

Date:

Astronomy

Jul. 31, 2012 Rise Set
Actual Time 7:10 AM CDT 8:50 PM CDT
Civil Twilight 6:43 AM CDT 9:16 PM CDT
Nautical Twilight 6:12 AM CDT 9:48 PM CDT
Astronomical Twilight 5:38 AM CDT 10:21 PM CDT
Moon 7:41 PM CDT (7/31) 5:35 AM CDT (7/31)
Length of Visible Light 14h 32m
Length of Day
13h 39m
Waxing Gibbous, 97% of the Moon is Illuminated
Jul 31
Waxing Gibbous
Aug 1
Full
Aug 9
Last Quarter
Aug 17
New
Aug 24
First Quarter

Hourly Weather History & Observations

Time (CDT) Temp. Heat Index Dew Point Humidity Pressure Visibility Wind Dir Wind Speed Gust Speed Precip Events Conditions
12:15 AM 79.2 °F - 52.5 °F 39% 30.03 in 10.0 mi ESE 6.9 mph - N/A   Clear
12:35 AM 78.3 °F - 52.9 °F 41% 30.03 in 10.0 mi East 6.9 mph - N/A   Clear
12:55 AM 77.7 °F - 53.6 °F 43% 30.03 in 10.0 mi ESE 5.8 mph - N/A   Clear
1:15 AM 76.5 °F - 54.3 °F 46% 30.02 in 10.0 mi East 6.9 mph - N/A   Clear
1:35 AM 75.6 °F - 54.5 °F 48% 30.02 in 10.0 mi ESE 5.8 mph - N/A   Clear
1:55 AM 75.2 °F - 54.9 °F 49% 30.02 in 10.0 mi Calm Calm - N/A   Clear
2:35 AM 75.2 °F - 54.0 °F 47% 30.02 in 10.0 mi Calm Calm - N/A   Clear
2:55 AM 75.2 °F - 54.1 °F 48% 30.02 in 10.0 mi Calm Calm - N/A   Clear
3:15 AM 75.2 °F - 53.8 °F 47% 30.02 in 10.0 mi Calm Calm - N/A   Clear
3:35 AM 73.9 °F - 55.4 °F 52% 30.02 in 10.0 mi Calm Calm - N/A   Clear
3:55 AM 73.9 °F - 55.4 °F 52% 30.02 in 10.0 mi ENE 3.5 mph - N/A   Clear
4:15 AM 73.2 °F - 55.4 °F 54% 30.02 in 10.0 mi ENE 3.5 mph - N/A   Clear
4:35 AM 72.7 °F - 55.4 °F 55% 30.02 in 10.0 mi East 5.8 mph - N/A   Clear
4:55 AM 71.6 °F - 55.9 °F 58% 30.02 in 10.0 mi ENE 4.6 mph - N/A   Clear
5:55 AM 70.9 °F - 56.3 °F 60% 30.03 in 10.0 mi NE 4.6 mph - N/A   Clear
6:55 AM 69.4 °F - 55.8 °F 62% 30.03 in 10.0 mi ENE 4.6 mph - N/A   Clear
7:15 AM 68.9 °F - 55.8 °F 63% 30.04 in 10.0 mi ENE 3.5 mph - N/A   Clear
7:35 AM 68.9 °F - 56.1 °F 64% 30.04 in 10.0 mi East 3.5 mph - N/A   Clear
7:55 AM 69.3 °F - 56.1 °F 63% 30.04 in 10.0 mi Calm Calm - N/A   Clear
8:15 AM 70.5 °F - 56.3 °F 61% 30.05 in 10.0 mi Calm Calm - N/A   Clear
8:35 AM 72.5 °F - 56.3 °F 57% 30.05 in 10.0 mi Calm Calm - N/A   Clear
9:15 AM 76.1 °F - 57.4 °F 52% 30.06 in 10.0 mi Calm Calm - N/A   Clear
9:35 AM 77.4 °F - 57.9 °F 51% 30.06 in 10.0 mi Calm Calm - N/A   Clear
9:55 AM 78.6 °F - 57.4 °F 48% 30.06 in 10.0 mi Calm Calm - N/A   Clear
10:55 AM 84.4 °F 83.5 °F 57.0 °F 39% 30.07 in 10.0 mi Calm Calm - N/A   Clear
11:35 AM 88.5 °F 86.7 °F 55.0 °F 32% 30.07 in 10.0 mi NE 3.5 mph - N/A   Clear
11:55 AM 90.7 °F 88.7 °F 55.0 °F 30% 30.07 in 10.0 mi North 4.6 mph - N/A   Clear
12:15 PM 91.9 °F 89.8 °F 54.9 °F 28% 30.06 in 10.0 mi NNE 3.5 mph - N/A   Clear
12:35 PM 93.7 °F 91.4 °F 54.0 °F 26% 30.06 in 10.0 mi NNW 4.6 mph - N/A   Clear
1:15 PM 94.6 °F - 51.3 °F 23% 30.05 in 10.0 mi Calm Calm - N/A   Clear
1:35 PM 96.1 °F - 51.4 °F 22% 30.04 in 10.0 mi Calm Calm - N/A   Clear
1:55 PM 96.4 °F - 49.6 °F 20% 30.03 in 10.0 mi West 3.5 mph - N/A   Clear
2:15 PM 98.1 °F - 49.1 °F 19% 30.03 in 10.0 mi SE 5.8 mph - N/A   Clear
2:35 PM 98.2 °F - 47.3 °F 18% 30.02 in 10.0 mi Calm Calm - N/A   Clear
2:55 PM 98.8 °F - 48.9 °F 18% 30.02 in 10.0 mi ENE 6.9 mph - N/A   Clear
3:15 PM 99.9 °F - 48.6 °F 18% 30.00 in 10.0 mi NE 5.8 mph - N/A   Clear
3:35 PM 98.8 °F - 48.0 °F 18% 29.99 in 10.0 mi WNW 3.5 mph - N/A   Clear
3:55 PM 100.4 °F - 46.8 °F 16% 29.98 in 10.0 mi Calm Calm - N/A   Clear
4:15 PM 100.0 °F - 45.9 °F 16% 29.97 in 10.0 mi Calm Calm - N/A   Clear
4:55 PM 101.1 °F - 46.2 °F 16% 29.96 in 10.0 mi ESE 8.1 mph - N/A   Clear
5:15 PM 100.8 °F - 45.5 °F 15% 29.96 in 10.0 mi East 4.6 mph - N/A   Clear
5:35 PM 100.6 °F - 45.7 °F 15% 29.95 in 10.0 mi SSE 4.6 mph - N/A   Clear
6:35 PM 100.4 °F - 45.0 °F 15% 29.94 in 10.0 mi Calm Calm - N/A   Clear
6:55 PM 100.0 °F - 44.4 °F 15% 29.93 in 10.0 mi Calm Calm - N/A   Clear
7:15 PM 99.5 °F - 44.6 °F 15% 29.93 in 10.0 mi NNE 6.9 mph - N/A   Clear
7:35 PM 99.7 °F - 43.7 °F 15% 29.93 in 10.0 mi Calm Calm - N/A   Clear
8:15 PM 96.8 °F - 49.5 °F 20% 29.93 in 10.0 mi ESE 5.8 mph - N/A   Clear
8:35 PM 95.4 °F - 47.8 °F 20% 29.93 in 10.0 mi ESE 5.8 mph - N/A   Clear
8:55 PM 91.8 °F - 51.3 °F 25% 29.94 in 10.0 mi East 5.8 mph - N/A   Clear
9:15 PM 89.1 °F - 51.3 °F 27% 29.95 in 10.0 mi East 6.9 mph - N/A   Clear
9:35 PM 88.3 °F - 51.8 °F 28% 29.95 in 10.0 mi ESE 5.8 mph - N/A   Clear
9:55 PM 88.7 °F - 50.4 °F 27% 29.96 in 10.0 mi East 10.4 mph - N/A   Clear
10:15 PM 89.6 °F - 48.9 °F 25% 29.97 in 10.0 mi East 10.4 mph - N/A   Clear
10:35 PM 89.6 °F - 49.3 °F 25% 29.98 in 10.0 mi ESE 12.7 mph - N/A   Clear
10:55 PM 88.9 °F - 50.2 °F 26% 29.98 in 10.0 mi ESE 12.7 mph - N/A   Clear
11:15 PM 87.8 °F - 50.2 °F 27% 29.99 in 10.0 mi ESE 10.4 mph - N/A   Clear
11:35 PM 86.9 °F - 50.0 °F 28% 30.00 in 10.0 mi ESE 10.4 mph - N/A   Clear